Weather History for Maxwell AFB, AL

Change the Weather History Date:

Thursday, August 1, 2013

  Actual Average Record
Temperature  
Mean Temperature 80 °F -  
Max Temperature 90 °F 90 °F 100 °F (1999)
Min Temperature 71 °F 72 °F 66 °F (1997)
Cooling Degree Days 15    
Growing Degree Days 30 (Base 50)    
Moisture  
Dew Point 73 °F    
Average Humidity 88    
Maximum Humidity 100    
Minimum Humidity 55    
Precipitation  
Precipitation 1.11 in - - ()
Sea Level Pressure  
Sea Level Pressure 29.98 in    
Wind  
Wind Speed 5 mph (WNW)    
Max Wind Speed 13 mph    
Max Gust Speed 16 mph    
Visibility 8 miles    
Events Rain , Thunderstorm    
Averages and records for this station are not official NWS values.
T = Trace of Precipitation, MM = Missing Value Source: NWS Daily Summary

Daily Weather History Graph

Daily Weather History Graph

Search for Another Location

Airport:

Trip Planner

Search our weather history database for the weather conditions in past years. The results will help you decide how hot, cold, wet, or windy it might be!

Date:

Astronomy

Aug. 01, 2013 Rise Set
Actual Time 6:00 AM CDT 7:42 PM CDT
Civil Twilight 5:33 AM CDT 8:09 PM CDT
Nautical Twilight 5:01 AM CDT 8:41 PM CDT
Astronomical Twilight 4:27 AM CDT 9:15 PM CDT
Moon 1:37 AM CDT (8/1) 3:49 PM CDT (8/1)
Length of Visible Light 14h 36m
Length of Day
13h 42m
Waning Crescent, 23% of the Moon is Illuminated
Aug 1
Waning Crescent
Aug 6
New
Aug 14
First Quarter
Aug 20
Full
Aug 28
Last Quarter

Hourly Weather History & Observations

Time (CDT) Temp. Heat Index Dew Point Humidity Pressure Visibility Wind Dir Wind Speed Gust Speed Precip Events Conditions
12:58 AM 75.0 °F - 72.7 °F 92% 30.01 in 10.0 mi Calm Calm - N/A   Mostly Cloudy
1:58 AM 74.7 °F - 72.9 °F 94% 30.00 in 10.0 mi South 2.3 mph - N/A   Scattered Clouds
2:58 AM 74.5 °F - 73.0 °F 95% 29.98 in 10.0 mi SE 2.3 mph - N/A   Partly Cloudy
3:14 AM 75.2 °F - 73.4 °F 94% 29.99 in 9.0 mi West 4.6 mph - N/A Rain Light Rain
3:19 AM 75.2 °F - 73.4 °F 94% 29.99 in 2.0 mi SW 5.8 mph - N/A Rain Heavy Rain
3:24 AM 75.2 °F - 73.4 °F 94% 29.99 in 1.0 mi SW 8.1 mph - N/A Rain , Thunderstorm Heavy Rain
3:32 AM 73.4 °F - 73.4 °F 100% 29.99 in 1.0 mi Variable 6.9 mph 16.1 mph N/A Rain , Thunderstorm Heavy Thunderstorms and Rain
3:37 AM 73.4 °F - 73.4 °F 100% 29.99 in 1.2 mi South 5.8 mph - N/A Rain , Thunderstorm Heavy Thunderstorms and Rain
3:42 AM 73.4 °F - 73.4 °F 100% 29.99 in 2.0 mi SSE 2.3 mph - N/A Rain , Thunderstorm Heavy Thunderstorms and Rain
3:47 AM 73.4 °F - 73.4 °F 100% 29.99 in 3.0 mi SE 3.5 mph - N/A Rain , Thunderstorm Rain
3:56 AM 73.4 °F - 73.4 °F 100% 30.00 in 6.0 mi North 4.6 mph - N/A Rain , Thunderstorm Light Thunderstorms and Rain
3:58 AM 73.4 °F - 73.4 °F 100% 30.01 in 6.0 mi North 4.6 mph - 0.73 in Rain , Thunderstorm Light Thunderstorms and Rain
4:03 AM 73.4 °F - 73.4 °F 100% 30.01 in 2.0 mi North 6.9 mph - N/A Rain , Thunderstorm Light Thunderstorms and Rain
4:08 AM 73.4 °F - 73.4 °F 100% 30.01 in 1.0 mi NE 8.1 mph - N/A Rain , Thunderstorm Heavy Thunderstorms and Rain
4:13 AM 73.4 °F - 73.4 °F 100% 30.00 in 1.2 mi Variable 4.6 mph - N/A Rain , Thunderstorm Thunderstorms and Rain
4:18 AM 73.4 °F - 73.4 °F 100% 30.01 in 6.0 mi NNE 6.9 mph - N/A Rain , Thunderstorm Light Thunderstorms and Rain
4:20 AM 73.4 °F - 73.4 °F 100% 30.01 in 9.0 mi NE 8.1 mph - N/A Thunderstorm Thunderstorm
4:26 AM 75.2 °F - 73.4 °F 94% 30.01 in 10.0 mi SE 5.8 mph - N/A Rain , Thunderstorm Light Thunderstorms and Rain
4:41 AM 75.2 °F - 73.4 °F 94% 30.01 in 1.5 mi East 11.5 mph - N/A Rain , Thunderstorm Heavy Thunderstorms and Rain
4:46 AM 73.4 °F - 71.6 °F 94% 29.99 in 1.8 mi ESE 11.5 mph - N/A Rain , Thunderstorm Rain
4:51 AM 71.6 °F - 71.6 °F 100% 29.99 in 4.0 mi SE 9.2 mph - N/A Rain , Thunderstorm Light Rain
4:56 AM 71.6 °F - 71.6 °F 100% 29.98 in 9.0 mi South 10.4 mph - N/A Rain Light Rain
4:58 AM 71.6 °F - 69.8 °F 94% 29.99 in 10.0 mi South 12.7 mph - 0.37 in Rain Light Rain
5:04 AM 71.6 °F - 71.6 °F 100% 29.96 in 10.0 mi South 10.4 mph - N/A   Scattered Clouds
5:18 AM 71.6 °F - 71.6 °F 100% 29.94 in 10.0 mi SSW 11.5 mph - N/A Rain Light Rain
5:58 AM 73.4 °F - 71.8 °F 95% 29.99 in 10.0 mi SW 3.5 mph - 0.00 in Rain Light Rain
6:03 AM 73.4 °F - 71.6 °F 94% 29.98 in 10.0 mi SW 6.9 mph - N/A   Partly Cloudy
6:58 AM 74.8 °F - 72.5 °F 92% 30.01 in 10.0 mi SW 4.6 mph - 0.01 in   Partly Cloudy
7:58 AM 74.7 °F - 72.7 °F 94% 30.02 in 10.0 mi WSW 4.6 mph - N/A   Clear
8:58 AM 78.4 °F - 73.9 °F 86% 30.01 in 10.0 mi Variable 3.5 mph - N/A   Partly Cloudy
9:58 AM 82.2 °F 88.3 °F 74.1 °F 76% 30.00 in 10.0 mi Variable 3.5 mph - N/A   Clear
10:58 AM 84.6 °F 92.8 °F 75.0 °F 73% 29.99 in 10.0 mi WNW 5.8 mph - N/A   Scattered Clouds
11:03 AM 84.2 °F 92.3 °F 75.2 °F 74% 29.98 in 10.0 mi NW 4.6 mph - N/A   Mostly Cloudy
11:48 AM 86.0 °F 95.1 °F 75.2 °F 70% 29.98 in 10.0 mi Variable 5.8 mph - N/A   Scattered Clouds
11:58 AM 86.2 °F 94.6 °F 74.7 °F 68% 29.98 in 10.0 mi West 4.6 mph - N/A   Partly Cloudy
12:58 PM 88.0 °F 97.5 °F 75.0 °F 65% 29.98 in 10.0 mi WNW 4.6 mph - N/A   Partly Cloudy
1:58 PM 88.9 °F 100.3 °F 76.1 °F 66% 29.96 in 10.0 mi North 4.6 mph - N/A   Partly Cloudy
2:58 PM 89.6 °F 100.4 °F 75.4 °F 63% 29.95 in 10.0 mi North 8.1 mph - N/A   Clear
3:58 PM 88.3 °F 97.4 °F 74.3 °F 63% 29.93 in 10.0 mi North 4.6 mph - N/A   Partly Cloudy
4:58 PM 88.9 °F 97.1 °F 73.4 °F 60% 29.94 in 10.0 mi North 8.1 mph - N/A   Clear
5:58 PM 89.4 °F 95.8 °F 71.4 °F 55% 29.93 in 10.0 mi North 6.9 mph - N/A   Clear
6:58 PM 86.5 °F 93.3 °F 72.5 °F 63% 29.94 in 10.0 mi North 5.8 mph - N/A   Clear
7:58 PM 81.3 °F 87.2 °F 74.5 °F 80% 29.96 in 10.0 mi NNW 3.5 mph - N/A   Clear
8:58 PM 78.6 °F - 75.0 °F 89% 29.96 in 10.0 mi NNE 3.5 mph - N/A   Clear
9:58 PM 77.5 °F - 74.8 °F 91% 29.98 in 10.0 mi NW 3.5 mph - N/A   Clear
10:58 PM 76.5 °F - 75.0 °F 95% 29.98 in 10.0 mi Calm Calm - N/A   Clear
11:58 PM 75.6 °F - 74.3 °F 96% 29.96 in 8.0 mi Calm Calm - N/A   Clear